DW6733 Weather Reports


time (UTC)temp
C
wind
direction
speed
KPH
gust
KPH
rain 1hr
cm
rain 24hr
cm
rain mn
cm
humidity
%
barometer
mb
20260508200005 19 248 8.0 20.9 0.00 0.00 0.00 43 1009.7
20260508195605 19 249 6.4 20.9 0.00 0.00 0.00 43 1009.8
20260508194905 20 230 9.7 24.1 0.00 0.00 0.00 44 1009.8
20260508194226 20 234 11.3 24.1 0.00 0.00 0.00 42 1009.8
20260508193505 20 249 11.3 25.7 0.00 0.00 0.00 42 1010.0
20260508192805 21 237 12.9 29.0 0.00 0.00 0.00 40 1009.9
20260508192126 21 227 11.3 27.4 0.00 0.00 0.00 42 1010.0
20260508191405 21 239 11.3 27.4 0.00 0.00 0.00 45 1010.1
20260508190706 20 244 12.9 25.7 0.00 0.00 0.00 46 1010.3
20260508190005 20 253 12.9 25.7 0.00 0.00 0.00 43 1010.6
20260508185606 20 249 12.9 24.1 0.00 0.00 0.00 43 1010.7
20260508184905 20 232 14.5 37.0 0.00 0.00 0.00 43 1010.7
20260508184205 20 242 12.9 37.0 0.00 0.00 0.00 43 1010.8
20260508183505 20 263 9.7 22.5 0.00 0.00 0.00 46 1010.8
20260508182806 19 260 9.7 22.5 0.00 0.00 0.00 52 1011.0
20260508182106 18 255 9.7 20.9 0.00 0.00 0.00 48 1011.2
20260508181405 18 241 9.7 27.4 0.00 0.00 0.00 49 1011.2
20260508180705 18 232 11.3 27.4 0.00 0.00 0.00 47 1011.2
20260508180027 18 231 9.7 24.1 0.00 0.00 0.00 47 1011.3
20260508175605 18 236 8.0 24.1 0.00 0.00 0.00 48 1011.4
20260508174905 18 238 8.0 27.4 0.00 0.00 0.00 47 1011.5
20260508174206 18 232 12.9 27.4 0.00 0.00 0.00 48 1011.6
20260508173505 18 233 11.3 27.4 0.00 0.00 0.00 48 1011.8
20260508172805 18 238 11.3 24.1 0.00 0.00 0.00 46 1011.8
20260508172106 18 241 12.9 32.2 0.00 0.00 0.00 47 1011.9
20260508171405 18 232 14.5 30.6 0.00 0.00 0.00 46 1012.0
20260508170704 19 244 11.3 27.4 0.00 0.00 0.00 48 1012.3
20260508170026 18 248 14.5 27.4 0.00 0.00 0.00 47 1012.4
20260508165605 18 246 12.9 27.4 0.00 0.00 0.00 50 1012.5
20260508164904 18 243 12.9 22.5 0.00 0.00 0.00 48 1012.6
20260508164205 18 240 14.5 29.0 0.00 0.00 0.00 50 1012.6
20260508163505 18 239 14.5 29.0 0.00 0.00 0.00 49 1012.7
20260508162804 18 241 14.5 32.2 0.00 0.00 0.00 49 1012.7
20260508162105 18 242 14.5 32.2 0.00 0.00 0.00 49 1012.8
20260508161404 18 250 12.9 27.4 0.00 0.00 0.00 49 1013.0
20260508160705 18 247 11.3 24.1 0.00 0.00 0.00 53 1013.1
20260508160004 18 246 12.9 29.0 0.00 0.00 0.00 51 1013.0
20260508155605 17 239 12.9 29.0 0.00 0.00 0.00 51 1013.1
20260508154904 17 251 12.9 29.0 0.00 0.00 0.00 52 1013.2
20260508154205 17 250 11.3 29.0 0.00 0.00 0.00 52 1013.2
20260508153504 17 257 12.9 29.0 0.00 0.00 0.00 50 1013.3
20260508152804 17 258 11.3 24.1 0.00 0.00 0.00 51 1013.2
20260508152125 17 257 9.7 24.1 0.00 0.00 0.00 54 1013.2
20260508151405 17 246 12.9 24.1 0.00 0.00 0.00 52 1013.2
20260508150705 17 250 12.9 24.1 0.00 0.00 0.00 50 1013.4
20260508150006 17 241 12.9 27.4 0.00 0.00 0.00 51 1013.5
20260508145604 17 236 14.5 27.4 0.00 0.00 0.00 50 1013.5
20260508144904 16 242 12.9 24.1 0.00 0.00 0.00 52 1013.5
20260508144204 16 240 12.9 24.1 0.00 0.00 0.00 50 1013.7
20260508143504 16 247 12.9 27.4 0.00 0.00 0.00 53 1013.8
20260508142825 16 252 12.9 25.7 0.00 0.00 0.00 52 1013.8
20260508142126 16 248 14.5 29.0 0.00 0.00 0.00 53 1013.8
20260508141404 15 255 11.3 29.0 0.00 0.00 0.00 55 1013.9
20260508140704 15 242 11.3 25.7 0.00 0.00 0.00 56 1013.9
20260508140004 15 236 11.3 25.7 0.00 0.00 0.00 59 1013.9
20260508135626 14 232 11.3 25.7 0.00 0.00 0.00 57 1013.9
20260508134925 14 238 11.3 20.9 0.00 0.00 0.00 58 1014.0
20260508134205 13 251 9.7 22.5 0.00 0.00 0.00 59 1014.0
20260508133504 13 249 9.7 22.5 0.00 0.00 0.00 60 1014.1
20260508132804 13 239 9.7 20.9 0.00 0.00 0.00 61 1014.0
20260508132104 12 238 8.0 17.7 0.00 0.00 0.00 62 1013.9
20260508131405 12 233 11.3 24.1 0.00 0.00 0.00 62 1013.9
20260508130704 12 234 9.7 20.9 0.00 0.00 0.00 62 1013.7
20260508130004 12 230 8.0 17.7 0.00 0.00 0.00 66 1013.8
20260508125604 11 230 8.0 25.7 0.00 0.00 0.00 67 1013.8
20260508124925 11 229 8.0 25.7 0.00 0.00 0.00 67 1013.8
20260508124226 11 232 8.0 14.5 0.00 0.00 0.00 69 1013.9
20260508123504 10 227 6.4 14.5 0.00 0.00 0.00 70 1013.9
20260508122804 10 234 6.4 16.1 0.00 0.00 0.00 70 1013.9
20260508122126 10 233 4.8 14.5 0.00 0.00 0.00 71 1014.0
20260508121426 9 229 6.4 14.5 0.00 0.00 0.00 71 1013.9
20260508120704 9 226 6.4 12.9 0.00 0.00 0.00 71 1013.9
20260508120004 9 226 4.8 11.3 0.00 0.00 0.00 72 1013.8
20260508115605 8 220 4.8 11.3 0.00 0.00 0.00 73 1013.8
20260508114904 8 218 3.2 8.0 0.00 0.00 0.00 73 1013.7
20260508114204 8 226 1.6 8.0 0.00 0.00 0.00 74 1013.6
20260508113504 8 228 1.6 8.0 0.00 0.00 0.00 74 1013.6
20260508111404 7 226 3.2 8.0 0.00 0.00 0.00 75 1013.5
20260508110724 7 234 3.2 6.4 0.00 0.00 0.00 75 1013.4
20260508110004 7 230 1.6 6.4 0.00 0.00 0.00 76 1013.3
20260508105625 7 229 1.6 6.4 0.00 0.00 0.00 76 1013.3
20260508104925 7 232 3.2 8.0 0.00 0.00 0.00 76 1013.3
20260508104225 7 229 3.2 9.7 0.00 0.00 0.00 77 1013.3
20260508103504 6 227 3.2 9.7 0.00 0.00 0.00 77 1013.2
20260508102804 6 233 3.2 6.4 0.00 0.00 0.00 78 1013.3
20260508102125 6 228 3.2 6.4 0.00 0.00 0.00 79 1013.3
20260508101425 6 225 3.2 8.0 0.00 0.00 0.00 79 1013.3
20260508100703 6 232 1.6 6.4 0.00 0.00 0.00 79 1013.3
20260508100004 6 241 0.0 4.8 0.00 0.00 0.00 79 1013.4
20260508095604 6 241 0.0 3.2 0.00 0.00 0.00 79 1013.4
20260508094904 6 241 0.0 3.2 0.00 0.00 0.00 79 1013.4
20260508094203 6 241 1.6 4.8 0.00 0.00 0.00 79 1013.5
20260508093503 6 235 3.2 8.0 0.00 0.00 0.00 79 1013.4
20260508092803 6 219 3.2 8.0 0.00 0.00 0.00 79 1013.4
20260508092104 6 221 3.2 8.0 0.00 0.00 0.00 80 1013.4
20260508091403 5 220 3.2 8.0 0.00 0.00 0.00 80 1013.5
20260508090703 5 212 1.6 8.0 0.00 0.00 0.00 80 1013.5
20260508090004 5 219 1.6 4.8 0.00 0.00 0.00 80 1013.4
20260508085603 5 235 0.0 4.8 0.00 0.00 0.00 79 1013.5
20260508084903 6 238 1.6 4.8 0.00 0.00 0.00 79 1013.5
20260508084203 6 238 0.0 3.2 0.00 0.00 0.00 79 1013.6
20260508083503 6 238 0.0 1.6 0.00 0.00 0.00 77 1013.5
20260508082803 6 238 0.0 1.6 0.00 0.00 0.00 77 1013.3
20260508082103 6 238 0.0 4.8 0.00 0.00 0.00 76 1013.4
20260508081404 6 238 0.0 3.2 0.00 0.00 0.00 75 1013.4
20260508080703 7 238 0.0 4.8 0.00 0.00 0.00 75 1013.4
20260508080003 7 238 0.0 4.8 0.00 0.00 0.00 74 1013.3
20260508075603 7 238 0.0 1.6 0.00 0.00 0.00 74 1013.3
20260508074903 7 225 1.6 6.4 0.00 0.00 0.00 72 1013.2
20260508074203 7 219 0.0 6.4 0.00 0.00 0.00 72 1013.4
20260508073524 7 202 1.6 3.2 0.00 0.00 0.00 72 1013.4
20260508072803 7 202 1.6 3.2 0.00 0.00 0.00 73 1013.4
20260508072104 7 217 1.6 8.0 0.00 0.00 0.00 72 1013.2
20260508071425 7 233 1.6 6.4 0.00 0.00 0.00 71 1013.3
20260508070703 7 234 3.2 4.8 0.00 0.00 0.00 71 1013.3
20260508070003 7 232 1.6 9.7 0.00 0.00 0.00 70 1013.5
20260508065603 7 238 1.6 9.7 0.00 0.00 0.00 70 1013.6
20260508064903 7 246 0.0 4.8 0.00 0.00 0.00 69 1013.6
20260508064203 7 231 3.2 6.4 0.00 0.00 0.00 69 1013.7
20260508063503 7 227 4.8 8.0 0.00 0.00 0.00 69 1013.8
20260508062824 7 228 4.8 9.7 0.00 0.00 0.00 70 1013.8
20260508062103 8 225 4.8 9.7 0.00 0.00 0.00 69 1013.7
20260508061403 8 220 4.8 9.7 0.00 0.00 0.00 70 1013.7
20260508060706 8 226 4.8 14.5 0.00 0.00 0.00 70 1013.6
20260508060027 8 228 4.8 11.3 0.00 0.00 0.00 70 1013.7
20260508055607 8 231 4.8 9.7 0.00 0.00 0.00 70 1013.8
20260508054907 8 229 4.8 11.3 0.00 0.00 0.00 69 1013.8
20260508054206 8 228 3.2 8.0 0.00 0.00 0.00 70 1013.7
20260508053507 8 221 3.2 6.4 0.00 0.00 0.00 70 1013.7
20260508052827 8 226 3.2 12.9 0.00 0.00 0.00 70 1013.7
20260508052107 8 230 3.2 11.3 0.00 0.00 0.00 70 1013.8
20260508051406 8 223 3.2 11.3 0.00 0.00 0.00 71 1013.8
20260508050706 7 223 4.8 12.9 0.00 0.00 0.00 71 1013.7
20260508050029 7 223 3.2 11.3 0.00 0.00 0.00 72 1013.7
20260508045627 7 216 3.2 8.0 0.00 0.00 0.00 73 1013.7
20260508044928 7 207 0.0 4.8 0.00 0.00 0.00 73 1013.6
20260508044227 7 209 0.0 4.8 0.00 0.00 0.00 72 1013.8
20260508043506 7 211 1.6 4.8 0.00 0.00 0.00 72 1013.7
20260508042827 7 205 1.6 8.0 0.00 0.00 0.00 72 1013.7
20260508042107 7 209 1.6 6.4 0.00 0.00 0.00 73 1013.7
20260508041407 7 201 1.6 6.4 0.00 0.00 0.00 74 1013.6
20260508040706 7 198 1.6 3.2 0.00 0.00 0.00 75 1013.6
20260508040028 7 216 1.6 4.8 0.00 0.00 0.00 76 1013.7
20260508035627 7 215 1.6 4.8 0.00 0.00 0.00 76 1013.7
20260508034906 7 217 1.6 8.0 0.00 0.00 0.00 78 1013.6
20260508034227 7 206 1.6 9.7 0.00 0.00 0.00 79 1013.7
20260508033506 7 203 1.6 8.0 0.00 0.00 0.00 81 1013.7
20260508032806 6 224 1.6 6.4 0.00 0.00 0.00 83 1013.7
20260508032127 6 226 0.0 4.8 0.00 0.00 0.00 84 1013.7
20260508031406 6 0 0.0 0.0 0.00 0.00 0.00 83 1013.6
20260508030727 6 0 0.0 0.0 0.00 0.00 0.00 82 1013.6
20260508030006 6 0 0.0 0.0 0.00 0.00 0.00 81 1013.6
20260508025606 7 0 0.0 0.0 0.00 0.00 0.00 81 1013.7
20260508024906 7 0 0.0 0.0 0.00 0.00 0.00 80 1013.6
20260508024227 7 0 0.0 0.0 0.00 0.00 0.00 77 1013.7
20260508023506 7 0 0.0 0.0 0.00 0.00 0.00 78 1013.6
20260508022806 7 0 0.0 0.0 0.00 0.00 0.00 79 1013.5
20260508022106 7 0 0.0 0.0 0.00 0.00 0.00 78 1013.6
20260508021406 7 0 0.0 0.0 0.00 0.00 0.00 78 1013.6
20260508020728 8 0 0.0 0.0 0.00 0.00 0.00 75 1013.7
20260508020006 8 0 0.0 0.0 0.00 0.00 0.00 73 1013.7
20260508015627 8 0 0.0 0.0 0.00 0.00 0.00 73 1013.7
20260508014907 8 0 0.0 0.0 0.00 0.00 0.00 72 1013.6
20260508014206 8 235 1.6 3.2 0.00 0.00 0.00 71 1013.6
20260508013506 9 235 0.0 3.2 0.00 0.00 0.00 70 1013.6
20260508012807 9 0 0.0 0.0 0.00 0.00 0.00 68 1013.4
20260508012107 10 0 0.0 0.0 0.00 0.00 0.00 67 1013.6
20260508011407 10 0 0.0 0.0 0.00 0.00 0.00 65 1013.6
20260508010706 10 0 0.0 0.0 0.00 0.00 0.00 63 1013.5
20260508010027 11 0 0.0 0.0 0.00 0.00 0.00 61 1013.5
20260508005606 11 235 0.0 1.6 0.00 0.00 0.00 59 1013.5
20260508004928 12 235 0.0 1.6 0.00 0.00 0.00 60 1013.5
20260508004228 12 0 0.0 0.0 0.00 0.00 0.00 58 1013.4
20260508003507 13 0 0.0 0.0 0.00 0.00 0.00 54 1013.3
20260508002806 13 235 0.0 3.2 0.00 0.00 0.00 51 1013.2
20260508002106 14 0 0.0 0.0 0.00 0.00 0.00 50 1013.2
20260508001406 14 235 0.0 3.2 0.00 0.00 0.00 46 1013.1
20260508000706 15 239 1.6 4.8 0.00 0.00 0.00 43 1013.1
20260508000006 15 240 1.6 8.0 0.00 0.00 0.00 44 1013.1
20260507235605 15 237 1.6 8.0 0.00 0.00 0.00 42 1013.1
20260507234906 15 269 3.2 8.0 0.00 0.00 0.00 42 1013.1
20260507234206 15 290 3.2 11.3 0.00 0.00 0.00 40 1013.0
20260507233505 15 289 3.2 11.3 0.00 0.00 0.00 39 1013.0
20260507232826 15 283 3.2 11.3 0.00 0.00 0.00 39 1013.0
20260507232106 15 272 6.4 14.5 0.00 0.00 0.00 37 1013.0
20260507231407 15 272 6.4 12.9 0.00 0.00 0.00 39 1012.9
20260507230706 16 277 4.8 11.3 0.00 0.00 0.00 39 1012.8
20260507230006 16 284 4.8 9.7 0.00 0.00 0.00 37 1012.9
20260507225605 16 298 3.2 9.7 0.00 0.00 0.00 38 1012.9
20260507224906 16 306 1.6 6.4 0.00 0.00 0.00 39 1012.8
20260507224205 16 303 3.2 11.3 0.00 0.00 0.00 39 1012.8
20260507223505 16 311 3.2 12.9 0.00 0.00 0.00 46 1012.9
20260507222805 16 314 4.8 12.9 0.00 0.00 0.00 40 1013.1
20260507222107 16 328 3.2 12.9 0.00 0.00 0.00 42 1013.1
20260507221405 15 302 3.2 9.7 0.00 0.00 0.00 43 1013.2
20260507220705 15 312 3.2 11.3 0.00 0.00 0.00 41 1013.2
20260507220005 15 282 6.4 17.7 0.00 0.00 0.00 41 1013.3
20260507215605 15 276 8.0 17.7 0.00 0.00 0.00 42 1013.3
20260507214905 15 288 8.0 17.7 0.00 0.00 0.00 40 1013.3
20260507214205 15 284 9.7 24.1 0.00 0.00 0.00 40 1013.3
20260507213505 15 314 4.8 11.3 0.00 0.00 0.00 45 1013.3
20260507212805 14 300 6.4 14.5 0.00 0.00 0.00 40 1013.2
20260507212105 14 297 8.0 16.1 0.00 0.00 0.00 43 1013.2
20260507211406 14 291 8.0 20.9 0.00 0.00 0.00 42 1013.3
20260507210705 15 286 6.4 16.1 0.00 0.00 0.00 39 1013.2
20260507210006 15 299 8.0 17.7 0.00 0.00 0.00 40 1013.1
20260507205605 15 291 8.0 17.7 0.00 0.00 0.00 38 1013.1
20260507204905 15 279 8.0 16.1 0.00 0.00 0.00 43 1012.9
20260507204205 15 298 6.4 17.7 0.00 0.00 0.00 39 1013.1
20260507203526 15 325 3.2 14.5 0.00 0.00 0.00 44 1013.0
20260507202805 15 345 4.8 17.7 0.00 0.00 0.00 44 1013.1
20260507202105 15 303 6.4 17.7 0.00 0.00 0.00 43 1013.0
20260507201405 15 295 8.0 16.1 0.00 0.00 0.00 42 1013.0
20260507200705 16 334 4.8 14.5 0.00 0.00 0.00 43 1013.0